Theta_e
312 313 314 315 316 317 316 316 314 309 308 307 306 305 303 302 301 299 299 299 297 297 297 297 297 297 296 295 296 296 296 296 293 295 296 297 297 297 300 301 302 302 302
311 311 312 313 313 312 311 310 307 304 304 303 302 301 300 298 297 297 296 296 295 294 295 295 295 296 294 294 294 293 294 294 293 292 294 294 294 296 297 297 299 301 301
304 305 306 306 306 306 306 305 304 302 300 299 299 297 296 296 295 295 295 294 293 293 293 293 293 293 292 292 293 293 293 295 293 292 292 293 293 294 294 295 296 297 298
301 301 301 301 302 302 302 301 300 299 297 296 295 295 294 294 294 293 292 292 292 292 293 293 292 292 292 292 292 291 291 290 290 290 290 291 291 292 290 290 291 291 293
300 299 299 300 300 300 300 298 297 296 295 294 293 292 292 292 292 292 291 291 291 291 292 293 293 292 290 291 290 289 289 288 287 287 287 287 287 286 285 289 289 290 291
299 299 299 299 299 298 297 296 294 293 293 292 291 291 290 289 292 291 290 289 289 289 289 290 291 288 289 291 292 292 291 288 287 286 285 284 286 286 288 287 287 286 284
297 298 298 297 296 295 294 294 292 292 291 290 290 289 289 289 291 291 289 287 288 288 288 289 289 289 288 289 291 292 291 292 293 290 287 287 286 287 288 287 286 286 286
294 295 294 293 293 292 291 291 290 290 289 288 288 288 288 288 290 289 288 286 286 287 288 288 287 287 288 287 287 287 287 287 287 288 288 288 289 290 289 289 288 286 287
284 284 284 285 288 288 288 287 286 286 285 285 285 284 284 285 289 288 287 285 285 285 286 286 286 286 288 289 287 285 284 285 289 290 291 291 292 292 291 288 286 284 283
279 280 280 282 283 284 284 284 281 283 283 282 283 283 282 282 286 286 286 284 282 282 283 284 285 284 287 287 284 282 281 282 283 283 284 285 287 287 289 288 286 283 283
278 279 278 278 279 279 279 280 280 280 281 279 281 281 281 282 282 284 284 282 281 280 280 281 281 283 283 284 284 281 281 283 283 282 282 282 283 283 284 285 286 285 283
276 275 274 275 276 277 275 277 277 276 277 277 278 280 281 281 282 282 282 282 282 279 278 279 279 281 282 283 282 283 283 283 280 279 278 278 279 280 282 283 285 285 286
273 272 272 273 274 275 272 274 274 275 275 276 277 277 278 279 279 280 280 279 279 278 278 279 280 280 280 279 280 281 279 277 276 276 276 278 280 281 281 282 283 284 285
270 271 272 271 271 272 273 273 272 272 272 273 273 272 272 274 275 275 276 274 276 276 277 276 277 278 277 277 275 276 276 276 275 275 275 277 278 278 278 279 279 281 281
271 270 270 270 269 270 271 270 271 272 272 268 266 270 268 268 272 276 276 274 273 276 276 273 272 271 270 270 270 270 271 271 270 271 272 272 273 274 274 276 276 277 277
269 269 268 269 270 270 270 271 274 274 274 274 274 274 273 274 276 276 276 277 278 278 272 267 267 267 267 267 267 267 268 268 269 269 269 269 269 269 270 271 272 272 272
267 268 269 269 269 269 269 269 268 271 273 273 273 273 274 274 274 275 276 276 274 272 262 262 264 265 265 266 266 266 266 267 268 268 268 268 268 269 269 269 270 270 270
267 267 267 267 268 267 267 267 267 267 266 267 270 272 272 272 274 275 275 270 263 263 258 261 262 263 264 264 264 264 265 266 266 266 266 266 267 267 266 267 267 268 268
265 266 265 266 267 266 266 266 267 266 266 266 267 268 269 271 272 272 271 259 257 258 259 259 262 262 263 263 263 264 264 264 264 264 264 264 265 266 266 267 267 268 268
264 265 264 264 265 265 265 265 265 265 264 264 264 264 265 265 264 263 259 257 257 258 261 261 262 262 263 263 263 263 263 263 263 264 264 264 264 265 265 266 267 267 267
263 263 264 263 264 264 264 263 263 263 262 262 263 262 271 265 262 262 261 262 258 261 262 262 263 263 263 263 264 264 263 264 264 264 264 264 264 264 265 266 266 267 268
263 262 262 261 261 262 261 260 261 262 261 260 261 259 268 256 256 258 259 261 261 262 263 263 263 264 264 264 264 264 264 264 264 265 265 265 265 265 265 265 266 266 267
261 261 261 260 260 261 260 259 258 258 258 257 258 260 258 259 259 257 259 261 262 262 263 263 264 264 265 265 266 266 266 267 268 269 269 269 268 267 267 266 266 265 266
256 257 257 257 256 256 256 257 256 258 259 258 258 258 257 257 259 260 260 261 261 262 263 263 263 264 264 265 266 268 269 269 270 271 271 270 269 268 267 267 267 266 266
255 255 254 254 254 253 252 252 253 253 254 255 256 254 255 257 257 259 260 261 261 261 262 263 263 263 264 265 266 267 269 271 272 272 272 270 268 268 268 269 269 269 268
253 254 256 256 257 257 257 258 259 260 259 258 256 255 255 257 258 259 260 260 260 261 262 262 263 263 264 266 268 270 272 273 273 274 272 270 270 270 270 270 270 271 268
Wind_Speed
3 2 3 4 5 5 5 5 6 6 7 7 7 7 7 7 7 6 6 7 6 5 3 4 5 4 3 3 3 3 4 3 6 9 4 7 8 8 9 6 6 10 10
3 3 2 2 3 5 5 5 5 6 5 7 7 7 7 7 6 7 7 5 6 6 5 4 5 3 5 4 3 5 4 4 4 12 12 7 7 6 8 11 9 8 9
3 4 4 5 5 5 6 6 6 7 7 7 7 7 7 7 7 5 5 5 5 5 5 5 6 5 5 4 4 4 3 4 4 5 12 8 5 5 8 7 7 9 7
5 5 6 7 7 6 6 7 7 7 7 6 6 6 7 6 6 6 6 5 4 4 4 5 5 6 6 5 4 4 3 4 3 6 9 12 7 6 4 8 11 5 10
7 7 8 6 6 6 7 7 7 7 7 7 7 6 6 6 5 6 6 5 5 5 5 6 6 6 9 6 3 4 4 4 4 6 9 9 10 7 6 5 9 12 11
7 8 6 7 7 7 7 7 7 7 7 8 7 7 7 4 9 7 4 4 5 5 5 5 5 6 6 8 9 10 9 7 8 6 9 9 15 9 8 7 8 10 11
6 6 6 6 7 7 6 6 7 7 6 7 6 7 7 6 10 8 6 4 4 5 5 4 3 3 5 6 7 9 9 12 15 10 14 12 16 10 10 13 10 10 12
5 5 6 4 4 4 5 6 5 5 7 6 6 6 6 4 8 5 4 3 4 5 4 4 4 4 5 6 6 8 7 6 6 7 12 15 13 12 9 11 14 16 15
6 6 7 7 5 3 5 5 3 5 5 5 5 6 6 4 3 0 2 2 3 4 4 4 4 5 6 10 8 10 11 9 9 16 20 24 24 24 18 12 12 13 18
7 6 6 6 7 6 4 5 3 3 4 4 5 5 4 3 1 2 3 0 3 1 2 2 5 6 13 15 8 8 13 12 12 15 15 17 19 16 21 16 12 15 15
7 6 7 8 6 6 4 4 3 4 5 4 5 3 3 3 3 5 7 4 3 4 4 4 2 13 16 17 18 10 14 18 18 15 14 12 11 11 10 9 11 12 14
7 7 7 8 7 6 6 5 5 4 5 4 4 3 4 5 7 7 8 8 9 5 7 6 6 18 21 22 18 21 24 22 11 11 12 12 12 10 9 9 11 13 14
6 6 6 6 7 6 6 6 4 5 4 4 3 4 4 4 4 12 11 12 12 7 6 11 19 19 20 16 18 20 17 8 9 11 12 12 11 11 13 13 13 15 18
6 6 5 7 6 6 5 5 5 5 5 5 5 4 3 3 4 4 3 3 6 7 10 7 13 17 18 15 8 9 6 7 8 11 12 12 12 12 12 11 13 12 14
6 6 6 4 5 5 5 4 5 4 4 2 2 3 3 2 3 8 8 5 4 8 11 4 6 6 6 6 6 5 5 7 8 9 11 12 12 12 12 11 12 13 15
5 4 4 4 5 5 4 3 7 7 8 8 9 6 4 8 11 12 12 13 14 17 5 3 6 6 7 8 8 9 7 8 8 10 10 11 13 13 14 12 12 13 15
5 5 4 5 5 5 5 4 4 5 7 6 7 7 9 10 12 12 12 13 14 12 3 3 6 6 8 8 9 9 10 9 11 10 11 12 12 13 15 13 13 13 14
3 3 4 4 4 4 4 4 3 3 4 3 7 7 6 11 13 12 14 10 6 6 2 5 6 7 8 9 9 9 10 9 10 11 11 12 12 13 13 14 13 15 15
3 3 4 3 2 3 3 3 3 3 2 3 3 3 5 12 11 13 12 1 2 4 4 5 6 7 8 9 9 9 11 10 11 12 11 12 12 12 14 14 14 19 19
1 1 2 2 3 2 2 3 3 3 3 3 4 4 5 3 3 5 2 2 2 4 5 6 7 8 9 9 10 10 11 12 12 12 12 12 12 12 14 15 14 15 14
2 2 1 1 1 2 2 2 3 3 3 3 4 3 14 4 5 5 5 5 4 5 7 7 8 9 9 10 11 11 12 13 13 14 14 13 13 14 14 14 14 15 15
2 1 1 1 1 2 1 2 3 3 3 4 4 4 14 2 3 5 5 6 6 6 7 8 10 10 10 11 12 13 15 15 15 15 16 15 14 14 13 14 15 15 14
1 2 2 2 2 3 3 3 3 3 3 3 4 5 3 4 4 4 5 7 7 8 8 8 10 11 11 11 12 13 15 16 16 16 17 17 15 14 13 14 15 15 14
2 2 3 3 2 3 3 4 3 4 5 4 4 4 4 4 5 7 7 7 7 8 9 9 10 15 14 14 13 13 15 17 16 17 24 16 15 17 15 16 16 18 16
3 3 3 3 3 4 3 4 4 4 4 4 4 3 4 5 5 7 7 8 8 9 10 10 11 14 17 22 23 26 26 26 25 27 14 18 19 22 18 15 17 16 16
3 3 3 3 4 4 4 5 5 5 5 5 4 4 5 5 6 7 8 8 9 10 13 11 13 20 22 20 23 25 27 30 26 23 16 14 15 14 14 17 21 15 12
Wind_Direction
291 262 192 185 165 155 161 162 155 141 150 152 149 149 153 155 159 156 166 169 177 189 199 197 230 240 254 262 260 258 257 231 265 285 255 292 289 290 293 293 294 295 290
181 151 200 155 149 148 153 157 150 146 143 147 148 149 155 158 158 164 173 173 184 194 212 219 240 251 255 252 253 257 252 248 251 283 293 295 278 285 283 290 290 282 286
178 174 189 185 182 185 179 162 149 151 156 155 153 157 155 155 160 171 173 182 190 200 207 218 238 249 269 261 258 265 269 282 273 279 287 293 285 286 295 286 283 288 282
202 212 212 200 189 188 173 157 153 154 151 149 148 149 154 160 165 172 164 177 199 211 217 222 240 244 251 266 262 276 287 291 274 273 282 293 297 301 277 297 302 283 301
205 213 225 208 198 186 177 171 158 156 154 157 153 152 150 156 159 162 172 187 200 223 232 234 233 239 244 245 261 266 268 271 274 287 285 292 294 304 298 303 293 308 305
218 225 211 195 191 198 184 175 161 162 161 154 162 156 155 153 149 144 164 201 219 232 244 242 245 255 267 260 255 243 236 266 273 274 281 278 285 293 303 300 303 311 309
235 236 219 210 202 199 183 174 175 171 148 157 155 151 159 160 163 173 189 223 238 253 266 282 280 264 287 282 271 268 256 249 249 265 276 271 283 288 297 298 293 284 277
14 6 355 295 233 206 188 184 163 157 164 158 155 154 149 161 161 179 214 238 249 259 262 268 274 279 280 293 293 288 283 269 262 263 265 280 273 285 270 283 293 291 284
24 20 2 348 318 226 209 189 147 136 133 137 138 141 151 164 145 319 311 268 257 274 285 294 295 303 284 299 298 302 301 292 282 280 278 282 286 287 284 289 282 287 290
14 9 6 12 25 39 60 73 20 79 104 107 109 114 128 145 119 359 349 252 322 326 324 322 344 334 341 334 332 323 308 311 315 302 291 289 290 284 274 267 277 277 282
8 20 18 19 38 29 47 54 61 79 95 94 107 112 122 107 81 50 28 37 11 346 338 336 348 338 328 322 316 307 294 302 300 295 292 289 284 277 271 260 258 263 266
13 32 28 24 23 20 33 29 42 61 87 88 96 87 82 62 49 31 19 14 0 359 336 330 326 321 319 317 313 303 302 304 300 292 286 286 286 283 278 272 265 260 259
11 27 29 36 36 20 35 23 32 38 48 52 70 68 61 48 41 45 26 4 350 335 323 315 319 317 313 309 301 302 306 293 287 283 285 288 289 293 291 285 275 266 265
4 9 37 34 32 34 45 32 44 34 35 50 50 45 25 19 35 26 359 336 329 326 316 311 312 316 310 303 309 305 297 293 293 290 289 292 296 297 291 292 288 285 278
23 8 5 38 39 34 56 48 48 39 46 44 26 27 34 1 336 345 344 338 314 316 319 328 318 316 314 309 305 299 293 294 294 291 292 294 294 296 293 296 290 285 278
34 11 6 15 29 30 28 42 65 47 38 50 38 25 4 343 343 346 340 331 326 330 338 337 314 313 314 313 307 307 302 296 293 293 289 288 289 289 290 289 286 283 283
36 3 17 14 22 22 20 23 7 2 35 55 40 18 349 342 338 336 330 343 350 352 350 323 315 314 304 304 303 301 300 299 298 287 285 284 284 284 288 286 285 282 279
48 19 21 9 4 10 13 355 343 356 353 349 357 354 0 343 336 337 353 9 344 342 324 300 296 296 297 297 294 295 295 299 294 290 287 285 282 280 282 280 281 281 281
38 48 17 10 343 333 323 329 317 319 329 320 321 345 354 335 336 356 355 73 287 294 282 281 287 290 289 287 289 289 289 289 288 288 283 282 283 283 279 275 273 274 276
13 351 33 315 335 337 328 327 318 316 324 321 313 320 314 291 355 339 299 264 264 266 281 284 288 283 284 288 290 289 291 289 284 281 280 279 279 276 277 279 277 275 271
348 323 344 276 326 312 297 294 302 300 289 293 296 289 325 12 336 316 310 311 279 289 291 288 290 289 288 290 290 292 286 282 279 278 276 274 271 271 270 271 273 273 274
265 303 283 275 270 284 296 286 278 280 289 297 303 305 331 357 304 291 291 298 290 283 289 295 293 290 290 288 285 281 279 280 280 277 274 270 265 263 266 268 268 268 268
286 330 325 311 278 283 280 272 270 279 287 292 303 304 305 290 282 272 278 286 290 293 291 286 286 287 284 280 278 278 281 284 284 281 281 280 273 265 266 264 262 262 262
320 278 272 275 284 275 276 280 276 284 280 275 275 277 278 276 287 294 289 289 288 285 285 285 282 282 288 287 287 286 284 284 282 284 286 288 286 282 269 262 257 254 254
246 240 241 246 252 260 275 272 267 266 265 263 278 284 290 291 287 284 285 286 287 291 290 290 289 287 289 293 291 288 287 287 292 290 286 285 274 271 264 260 257 252 242
244 235 239 244 255 252 255 267 271 276 279 277 268 266 265 265 269 279 289 292 295 295 298 293 293 294 294 294 291 294 300 304 302 304 304 291 285 277 270 265 262 254 226